Time,TemperatureF,DewpointF,PressureIn,WindDirection,WindDirectionDegrees,WindSpeedMPH,WindSpeedGustMPH,Humidity,HourlyPrecipIn,Conditions,Clouds,dailyrainin,SoftwareType,DateUTC
2013-05-21 00:00:00,82.6,77.9,29.87,East,101,9.0,15.0,86,0.00,CLR,,0.00,WeatherDisplay:10.37,2013-05-21 06:00:00,
2013-05-21 00:15:00,82.6,78.0,29.86,ESE,106,7.0,14.0,86,0.00,CLR,,0.00,WeatherDisplay:10.37,2013-05-21 06:15:00,
2013-05-21 00:30:00,82.6,77.3,29.86,ESE,102,13.0,22.0,84,0.00,CLR,,0.00,WeatherDisplay:10.37,2013-05-21 06:30:00,
2013-05-21 00:45:00,82.6,77.6,29.85,ESE,118,12.0,22.0,85,0.00,CLR,,0.00,WeatherDisplay:10.37,2013-05-21 06:45:00,
2013-05-21 01:00:00,82.6,77.6,29.85,ESE,110,14.0,21.0,85,0.00,CLR,,0.00,WeatherDisplay:10.37,2013-05-21 07:00:00,
2013-05-21 01:15:00,82.5,77.5,29.84,ESE,102,14.0,20.0,85,0.00,CLR,,0.00,WeatherDisplay:10.37,2013-05-21 07:15:00,
2013-05-21 01:30:00,82.5,77.9,29.84,ESE,103,9.0,21.0,86,0.00,CLR,,0.00,WeatherDisplay:10.37,2013-05-21 07:30:00,
2013-05-21 01:45:00,82.6,77.6,29.84,ESE,116,12.0,20.0,85,0.00,CLR,,0.00,WeatherDisplay:10.37,2013-05-21 07:45:00,
2013-05-21 02:00:00,82.5,77.5,29.83,ESE,104,10.0,20.0,85,0.00,CLR,,0.00,WeatherDisplay:10.37,2013-05-21 08:00:00,
2013-05-21 02:15:00,82.5,78.2,29.83,ESE,104,10.0,16.0,87,0.00,CLR,,0.00,WeatherDisplay:10.37,2013-05-21 08:15:00,
2013-05-21 02:30:00,82.4,77.8,29.83,East,101,14.0,19.0,86,0.00,CLR,,0.00,WeatherDisplay:10.37,2013-05-21 08:30:00,
2013-05-21 02:45:00,82.5,77.2,29.82,ESE,105,18.0,25.0,84,0.00,CLR,,0.00,WeatherDisplay:10.37,2013-05-21 08:45:00,
2013-05-21 03:00:00,82.5,77.5,29.82,ESE,113,9.0,22.0,85,0.00,CLR,,0.00,WeatherDisplay:10.37,2013-05-21 09:00:00,
2013-05-21 03:15:00,82.3,77.7,29.82,ESE,115,13.0,22.0,86,0.00,CLR,,0.00,WeatherDisplay:10.37,2013-05-21 09:15:00,
2013-05-21 03:30:00,82.4,77.8,29.81,ESE,103,18.0,23.0,86,0.00,CLR,,0.00,WeatherDisplay:10.37,2013-05-21 09:30:00,
2013-05-21 03:45:00,82.4,77.8,29.81,East,100,14.0,20.0,86,0.00,CLR,,0.00,WeatherDisplay:10.37,2013-05-21 09:45:00,
2013-05-21 04:00:00,82.5,77.8,29.81,ESE,104,14.0,21.0,86,0.00,CLR,,0.00,WeatherDisplay:10.37,2013-05-21 10:00:00,
2013-05-21 04:15:00,82.4,77.0,29.82,ESE,104,17.0,24.0,84,0.00,CLR,,0.00,WeatherDisplay:10.37,2013-05-21 10:15:00,
2013-05-21 04:30:00,82.5,77.5,29.82,ESE,114,17.0,24.0,85,0.00,CLR,,0.00,WeatherDisplay:10.37,2013-05-21 10:30:00,
2013-05-21 04:45:00,82.6,77.3,29.83,ESE,115,16.0,25.0,84,0.00,CLR,,0.00,WeatherDisplay:10.37,2013-05-21 10:45:00,
2013-05-21 05:00:00,82.5,77.5,29.83,ESE,111,13.0,20.0,85,0.00,CLR,,0.00,WeatherDisplay:10.37,2013-05-21 11:00:00,
2013-05-21 05:15:00,82.5,76.5,29.83,ESE,112,18.0,24.0,82,0.00,CLR,,0.00,WeatherDisplay:10.37,2013-05-21 11:15:00,
2013-05-21 05:30:00,82.7,77.0,29.83,ESE,114,17.0,24.0,83,0.00,CLR,,0.00,WeatherDisplay:10.37,2013-05-21 11:30:00,
2013-05-21 05:45:00,82.7,76.3,29.84,ESE,111,21.0,24.0,81,0.00,CLR,,0.00,WeatherDisplay:10.37,2013-05-21 11:45:00,
2013-05-21 06:00:00,82.8,77.1,29.84,ESE,118,17.0,28.0,83,0.00,CLR,,0.00,WeatherDisplay:10.37,2013-05-21 12:00:00,
2013-05-21 06:15:00,83.0,77.0,29.85,ESE,107,15.0,21.0,82,0.00,CLR,,0.00,WeatherDisplay:10.37,2013-05-21 12:15:00,
2013-05-21 06:30:00,83.2,76.8,29.85,ESE,111,20.0,26.0,81,0.00,CLR,,0.00,WeatherDisplay:10.37,2013-05-21 12:30:00,
2013-05-21 06:45:00,83.4,76.6,29.86,ESE,110,22.0,26.0,80,0.00,CLR,,0.00,WeatherDisplay:10.37,2013-05-21 12:45:00,
2013-05-21 07:00:00,83.5,76.7,29.86,ESE,110,22.0,26.0,80,0.00,CLR,,0.00,WeatherDisplay:10.37,2013-05-21 13:00:00,
2013-05-21 07:15:00,83.5,77.0,29.86,ESE,117,18.0,25.0,81,0.00,CLR,,0.00,WeatherDisplay:10.37,2013-05-21 13:15:00,
2013-05-21 07:30:00,83.7,76.9,29.86,ESE,116,22.0,28.0,80,0.00,CLR,,0.00,WeatherDisplay:10.37,2013-05-21 13:30:00,
2013-05-21 07:45:00,83.8,77.0,29.86,ESE,117,22.0,26.0,80,0.00,CLR,,0.00,WeatherDisplay:10.37,2013-05-21 13:45:00,
2013-05-21 08:00:00,84.0,77.9,29.86,ESE,121,18.0,25.0,82,0.00,CLR,,0.00,WeatherDisplay:10.37,2013-05-21 14:00:00,
2013-05-21 08:15:00,84.1,77.6,29.86,ESE,116,20.0,26.0,81,0.00,CLR,,0.00,WeatherDisplay:10.37,2013-05-21 14:15:00,
2013-05-21 08:30:00,84.1,77.6,29.87,ESE,115,21.0,26.0,81,0.00,CLR,,0.00,WeatherDisplay:10.37,2013-05-21 14:30:00,
2013-05-21 08:45:00,84.0,77.5,29.87,ESE,119,21.0,25.0,81,0.00,CLR,,0.00,WeatherDisplay:10.37,2013-05-21 14:45:00,
2013-05-21 09:00:00,84.3,77.4,29.87,ESE,119,21.0,25.0,80,0.00,CLR,,0.00,WeatherDisplay:10.37,2013-05-21 15:00:00,
2013-05-21 09:15:00,84.5,77.3,29.88,ESE,116,18.0,24.0,79,0.00,CLR,,0.00,WeatherDisplay:10.37,2013-05-21 15:15:00,
2013-05-21 09:30:00,84.8,77.9,29.88,ESE,117,17.0,26.0,80,0.00,CLR,,0.00,WeatherDisplay:10.37,2013-05-21 15:30:00,
2013-05-21 09:45:00,84.8,77.6,29.88,ESE,113,16.0,21.0,79,0.00,CLR,,0.00,WeatherDisplay:10.37,2013-05-21 15:45:00,
2013-05-21 10:00:00,84.8,77.1,29.88,ESE,118,18.0,23.0,78,0.00,CLR,,0.00,WeatherDisplay:10.37,2013-05-21 16:00:00,
2013-05-21 10:15:00,85.0,77.4,29.88,ESE,119,16.0,20.0,78,0.00,CLR,,0.00,WeatherDisplay:10.37,2013-05-21 16:15:00,
2013-05-21 10:30:00,85.2,77.6,29.88,ESE,110,14.0,21.0,78,0.00,CLR,,0.00,WeatherDisplay:10.37,2013-05-21 16:30:00,
2013-05-21 10:45:00,85.2,76.4,29.87,ESE,113,16.0,20.0,75,0.00,CLR,,0.00,WeatherDisplay:10.37,2013-05-21 16:45:00,
2013-05-21 11:00:00,85.4,77.0,29.87,ESE,116,15.0,19.0,76,0.00,CLR,,0.00,WeatherDisplay:10.37,2013-05-21 17:00:00,
2013-05-21 11:15:00,85.3,77.3,29.87,ESE,117,15.0,20.0,77,0.00,CLR,,0.00,WeatherDisplay:10.37,2013-05-21 17:15:00,
2013-05-21 11:30:00,85.4,77.8,29.86,ESE,118,14.0,18.0,78,0.00,CLR,,0.00,WeatherDisplay:10.37,2013-05-21 17:30:00,
2013-05-21 11:45:00,85.4,77.8,29.86,ESE,119,14.0,20.0,78,0.00,CLR,,0.00,WeatherDisplay:10.37,2013-05-21 17:45:00,
2013-05-21 12:00:00,85.4,77.0,29.85,SE,125,15.0,22.0,76,0.00,CLR,,0.00,WeatherDisplay:10.37,2013-05-21 18:00:00,
2013-05-21 12:15:00,85.4,77.0,29.84,ESE,116,15.0,19.0,76,0.00,CLR,,0.00,WeatherDisplay:10.37,2013-05-21 18:15:00,
2013-05-21 12:30:00,85.4,77.0,29.84,ESE,108,16.0,19.0,76,0.00,CLR,,0.00,WeatherDisplay:10.37,2013-05-21 18:30:00,
2013-05-21 12:45:00,85.4,77.4,29.83,ESE,116,15.0,20.0,77,0.00,CLR,,0.00,WeatherDisplay:10.37,2013-05-21 18:45:00,
2013-05-21 13:00:00,85.5,77.1,29.83,ESE,109,15.0,19.0,76,0.00,CLR,,0.00,WeatherDisplay:10.37,2013-05-21 19:00:00,
2013-05-21 13:15:00,85.4,77.8,29.82,ESE,114,14.0,19.0,78,0.00,CLR,,0.00,WeatherDisplay:10.37,2013-05-21 19:15:00,
2013-05-21 13:30:00,85.3,77.7,29.82,ESE,114,14.0,19.0,78,0.00,CLR,,0.00,WeatherDisplay:10.37,2013-05-21 19:30:00,
2013-05-21 13:45:00,85.3,77.7,29.81,ESE,114,14.0,16.0,78,0.00,CLR,,0.00,WeatherDisplay:10.37,2013-05-21 19:45:00,
2013-05-21 14:00:00,85.2,78.3,29.81,ESE,117,13.0,18.0,80,0.00,CLR,,0.00,WeatherDisplay:10.37,2013-05-21 20:00:00,
2013-05-21 14:15:00,85.0,78.2,29.80,ESE,114,15.0,18.0,80,0.00,CLR,,0.00,WeatherDisplay:10.37,2013-05-21 20:15:00,
2013-05-21 14:30:00,84.8,77.5,29.80,ESE,115,17.0,19.0,79,0.00,CLR,,0.00,WeatherDisplay:10.37,2013-05-21 20:30:00,
2013-05-21 14:45:00,84.8,77.9,29.79,ESE,112,14.0,18.0,80,0.00,CLR,,0.00,WeatherDisplay:10.37,2013-05-21 20:45:00,
2013-05-21 15:00:00,85.0,78.1,29.79,ESE,108,10.0,16.0,80,0.00,CLR,,0.00,WeatherDisplay:10.37,2013-05-21 21:00:00,
2013-05-21 15:15:00,84.7,78.2,29.78,ESE,116,12.0,18.0,81,0.00,CLR,,0.00,WeatherDisplay:10.37,2013-05-21 21:15:00,
2013-05-21 15:30:00,84.6,77.8,29.78,ESE,112,16.0,19.0,80,0.00,CLR,,0.00,WeatherDisplay:10.37,2013-05-21 21:30:00,
2013-05-21 15:45:00,84.7,77.8,29.77,ESE,107,10.0,16.0,80,0.00,CLR,,0.00,WeatherDisplay:10.37,2013-05-21 21:45:00,
2013-05-21 16:00:00,84.8,78.3,29.76,ESE,108,8.0,20.0,81,0.00,CLR,,0.00,WeatherDisplay:10.37,2013-05-21 22:00:00,
2013-05-21 16:15:00,84.6,77.7,29.77,ESE,103,9.0,18.0,80,0.00,CLR,,0.00,WeatherDisplay:10.37,2013-05-21 22:15:00,
2013-05-21 16:26:00,84.5,78.1,29.77,East,99,9.0,18.0,81,0.00,CLR,,0.00,WeatherDisplay:10.37,2013-05-21 22:26:00,
2013-05-21 16:45:00,84.1,77.6,29.77,ESE,103,8.0,21.0,81,0.00,CLR,,0.00,WeatherDisplay:10.37,2013-05-21 22:45:00,
2013-05-21 17:00:00,84.1,77.6,29.77,East,89,9.0,16.0,81,0.00,CLR,,0.00,WeatherDisplay:10.37,2013-05-21 23:00:00,
2013-05-21 17:15:00,83.7,78.0,29.77,ESE,103,10.0,21.0,83,0.00,CLR,,0.00,WeatherDisplay:10.37,2013-05-21 23:15:00,
2013-05-21 17:30:00,83.4,78.1,29.78,East,92,8.0,20.0,84,0.00,CLR,,0.00,WeatherDisplay:10.37,2013-05-21 23:30:00,
2013-05-21 17:45:00,83.3,78.3,29.78,East,94,10.0,21.0,85,0.00,CLR,,0.00,WeatherDisplay:10.37,2013-05-21 23:45:00,
2013-05-21 18:00:00,83.1,78.5,29.78,East,95,15.0,21.0,86,0.00,CLR,,0.00,WeatherDisplay:10.37,2013-05-22 00:00:00,
2013-05-21 18:15:00,82.9,77.6,29.79,East,100,10.0,22.0,84,0.00,CLR,,0.00,WeatherDisplay:10.37,2013-05-22 00:15:00,
2013-05-21 18:30:00,82.9,77.9,29.80,East,90,17.0,21.0,85,0.00,CLR,,0.00,WeatherDisplay:10.37,2013-05-22 00:30:00,
2013-05-21 18:45:00,82.8,78.2,29.80,East,95,16.0,21.0,86,0.00,CLR,,0.00,WeatherDisplay:10.37,2013-05-22 00:45:00,
2013-05-21 19:00:00,82.8,78.2,29.81,East,92,15.0,20.0,86,0.00,CLR,,0.00,WeatherDisplay:10.37,2013-05-22 01:00:00,
2013-05-21 19:15:00,82.7,78.4,29.81,East,93,15.0,21.0,87,0.00,CLR,,0.00,WeatherDisplay:10.37,2013-05-22 01:15:00,
2013-05-21 19:30:00,82.7,78.1,29.81,East,89,18.0,23.0,86,0.00,CLR,,0.00,WeatherDisplay:10.37,2013-05-22 01:30:00,
2013-05-21 19:45:00,82.7,78.1,29.82,East,92,15.0,22.0,86,0.00,CLR,,0.00,WeatherDisplay:10.37,2013-05-22 01:45:00,
2013-05-21 20:00:00,82.7,78.1,29.82,ESE,107,10.0,24.0,86,0.00,CLR,,0.00,WeatherDisplay:10.37,2013-05-22 02:00:00,
2013-05-21 20:15:00,82.8,78.5,29.82,East,101,13.0,21.0,87,0.00,CLR,,0.00,WeatherDisplay:10.37,2013-05-22 02:15:00,
2013-05-21 20:30:00,82.7,78.1,29.82,East,100,9.0,21.0,86,0.00,CLR,,0.00,WeatherDisplay:10.37,2013-05-22 02:30:00,
2013-05-21 20:45:00,82.7,78.4,29.83,East,100,8.0,20.0,87,0.00,CLR,,0.00,WeatherDisplay:10.37,2013-05-22 02:45:00,
2013-05-21 21:00:00,82.8,78.2,29.84,ESE,107,12.0,19.0,86,0.00,CLR,,0.00,WeatherDisplay:10.37,2013-05-22 03:00:00,
2013-05-21 21:15:00,82.8,78.5,29.84,ESE,115,9.0,19.0,87,0.00,CLR,,0.00,WeatherDisplay:10.37,2013-05-22 03:15:00,
2013-05-21 21:30:00,82.8,78.2,29.84,ESE,103,12.0,22.0,86,0.00,CLR,,0.00,WeatherDisplay:10.37,2013-05-22 03:30:00,
2013-05-21 21:45:00,82.9,78.3,29.85,ESE,105,13.0,21.0,86,0.00,CLR,,0.00,WeatherDisplay:10.37,2013-05-22 03:45:00,
2013-05-21 22:00:00,83.0,78.4,29.85,East,101,15.0,25.0,86,0.00,CLR,,0.00,WeatherDisplay:10.37,2013-05-22 04:00:00,
2013-05-21 22:15:00,82.9,78.3,29.85,ESE,115,16.0,25.0,86,0.00,CLR,,0.00,WeatherDisplay:10.37,2013-05-22 04:15:00,
2013-05-21 22:30:00,82.9,77.9,29.85,ESE,121,18.0,24.0,85,0.00,CLR,,0.00,WeatherDisplay:10.37,2013-05-22 04:30:00,
2013-05-21 22:45:00,82.9,78.3,29.85,ESE,109,15.0,23.0,86,0.00,CLR,,0.00,WeatherDisplay:10.37,2013-05-22 04:45:00,
2013-05-21 23:00:00,82.8,77.8,29.85,ESE,107,15.0,21.0,85,0.00,CLR,,0.00,WeatherDisplay:10.37,2013-05-22 05:00:00,
2013-05-21 23:15:00,82.8,77.8,29.85,ESE,110,18.0,24.0,85,0.00,CLR,,0.00,WeatherDisplay:10.37,2013-05-22 05:15:00,
2013-05-21 23:30:00,82.8,78.2,29.84,ESE,107,18.0,23.0,86,0.00,CLR,,0.00,WeatherDisplay:10.37,2013-05-22 05:30:00,
2013-05-21 23:45:00,82.8,77.5,29.84,ESE,119,20.0,24.0,84,0.00,CLR,,0.00,WeatherDisplay:10.37,2013-05-22 05:45:00,